This is the latest recevied weather packets stored in our database for station/object N5TDX. If no packets are shown the sender has not sent any weather packets the latest 10 day(s).
| Time | Temp. | Humidity | Pressure | Rain* | Wind** | Luminosity | Snow |
|---|---|---|---|---|---|---|---|
| 1778002613 | 28.89° C | 61% | 1002.5 hPa | 0 mm | - | - | - |
| 1778002309 | 28.89° C | 61% | 1002.6 hPa | 0 mm | - | - | - |
| 1778002007 | 28.33° C | 63% | 1002.6 hPa | 0 mm | - | - | - |
| 1778001704 | 28.33° C | 64% | 1002.7 hPa | 0 mm | - | - | - |
| 1778001403 | 27.78° C | 65% | 1002.6 hPa | 0 mm | - | - | - |
| 1778001101 | 27.78° C | 65% | 1002.5 hPa | 0 mm | - | - | - |
| 1778000798 | 27.78° C | 65% | 1002.6 hPa | 0 mm | - | - | - |
| 1778000494 | 27.78° C | 64% | 1002.6 hPa | 0 mm | - | - | - |
| 1778000189 | 27.78° C | 65% | 1002.7 hPa | 0 mm | - | - | - |
| 1777999886 | 27.78° C | 64% | 1002.4 hPa | 0 mm | - | - | - |
| 1777999581 | 27.78° C | 65% | 1002.7 hPa | 0 mm | - | - | - |
| 1777999279 | 27.22° C | 65% | 1002.6 hPa | 0 mm | - | - | - |
| 1777998977 | 27.22° C | 66% | 1002.7 hPa | 0 mm | - | - | - |
| 1777998674 | 27.78° C | 65% | 1002.5 hPa | 0 mm | - | - | - |
| 1777998372 | 27.78° C | 65% | 1002.4 hPa | 0 mm | - | - | - |
| 1777998069 | 26.67° C | 68% | 1002.4 hPa | 0 mm | - | - | - |
| 1777997766 | 26.67° C | 69% | 1002.1 hPa | 0 mm | - | - | - |
| 1777997463 | 26.11° C | 69% | 1002.1 hPa | 0 mm | - | - | - |
| 1777997161 | 26.11° C | 69% | 1002.3 hPa | 0 mm | - | - | - |
| 1777996858 | 26.11° C | 70% | 1002 hPa | 0 mm | - | - | - |
| 1777996554 | 26.11° C | 69% | 1002.4 hPa | 0 mm | - | - | - |
| 1777996251 | 25.56° C | 71% | 1002.4 hPa | 0 mm | - | - | - |
| 1777995947 | 25.56° C | 72% | 1002.3 hPa | 0 mm | - | - | - |
| 1777995643 | 25° C | 73% | 1002.3 hPa | 0 mm | - | - | - |
| 1777995341 | 25° C | 72% | 1002.1 hPa | 0 mm | - | - | - |
* Rain latest hour (hover to see other rain measurements)
** Current wind speed in m/s (hover to see current wind gust speed)